sat.trackr.live / text

‹ back to catalog

SNUGLITE-III

NORAD 66661 · 2025-274M

PAYLOAD ACTIVE UNKNOWN

§ Identity

Operator
Country
SKOR
Launch date
2025-11-26
Launch site
NSC
Launch vehicle
Mass (kg)
RCS (m²)

External: N2YO · Heavens-Above · Gunter

§ Orbital elements

Epoch: 2026-09-20T13:05:03.257376Z

Period
96.37 min
Inclination
97.7489°
Eccentricity
0.0015970
Mean motion
14.94259111 rev/d
Perigee alt
573.6 km
Apogee alt
595.8 km
Semi-major
6,962.8 km
B*
1.3789e-4
RAAN
191.7414°
Arg perigee
64.8441°
Mean anomaly
295.4434°
Rev number
4,447

§ Raw data

SNUGLITE-III1 66661U 25274M   26263.54517659  .00001425  00000+0  13789-3 0  99982 66661  97.7489 191.7414 0015970  64.8441 295.4434 14.94259111 44474

JSON: /api/v1/satellites/66661 · /tle

For live sub-satellite position, see the globe view (requires WebGL).

§ Visibility from observer

Set your observer location to see the next 7 days of passes ≥ 10°. The values pass through the URL so the page stays shareable.

No JS? Fill the form by hand. The geolocation button needs JavaScript.